Location: Nianha
(10.8000°N, 4.6333°W)
Time: 13:29:49
(UTC+00:00)

Milstar 3 - Pass Details

Date: 14 November 2019
Orbit: 1103 x 5142 km, 28.2° (Epoch: 07 January)

Event Time Altitude Azimuth Distance (km) Brightness Sun altitude
Exits shadow 03:47:12 36° 10° (N) 2,137 4.1 -35.4°
Maximum altitude 03:47:13 36° 10° (N) 2,136 4.1 -35.4°
Drops below altitude 10° 03:53:48 10° 77° (ENE) 3,072 5.7 -33.8°
Sets 03:56:29 0° 86° (E) 3,934 6.6 -33.2°
